Year,Month,Day,Hour,Minute,Value (Times are PST for temperature in C)
2013,09,18,00,00,13.30
2013,09,18,00,01,13.20
2013,09,18,00,02,13.20
2013,09,18,00,03,13.20
2013,09,18,00,04,13.20
2013,09,18,00,05,13.10
2013,09,18,00,06,13.10
2013,09,18,00,07,13.10
2013,09,18,00,08,13.10
2013,09,18,00,09,13.00
2013,09,18,00,10,13.00
2013,09,18,00,11,12.90
2013,09,18,00,12,12.90
2013,09,18,00,13,12.90
2013,09,18,00,14,12.80
2013,09,18,00,15,12.80
2013,09,18,00,16,12.80
2013,09,18,00,17,12.70
2013,09,18,00,18,12.70
2013,09,18,00,19,12.70
2013,09,18,00,20,12.60
2013,09,18,00,21,12.60
2013,09,18,00,22,12.60
2013,09,18,00,23,12.60
2013,09,18,00,24,12.60
2013,09,18,00,25,12.50
2013,09,18,00,26,12.50
2013,09,18,00,27,12.50
2013,09,18,00,28,12.50
2013,09,18,00,29,12.40
2013,09,18,00,30,12.40
2013,09,18,00,31,12.40
2013,09,18,00,32,12.40
2013,09,18,00,33,12.30
2013,09,18,00,34,12.30
2013,09,18,00,35,12.30
2013,09,18,00,36,12.30
2013,09,18,00,37,12.30
2013,09,18,00,38,12.30
2013,09,18,00,39,12.30
2013,09,18,00,40,12.30
2013,09,18,00,41,12.30
2013,09,18,00,42,12.30
2013,09,18,00,43,12.30
2013,09,18,00,44,12.40
2013,09,18,00,45,12.50
2013,09,18,00,46,12.50
2013,09,18,00,47,12.60
2013,09,18,00,48,12.70
2013,09,18,00,49,12.80
2013,09,18,00,50,12.80
2013,09,18,00,51,12.80
2013,09,18,00,52,12.80
2013,09,18,00,53,12.80
2013,09,18,00,54,12.80
2013,09,18,00,55,12.80
2013,09,18,00,56,12.80
2013,09,18,00,57,12.80
2013,09,18,00,58,12.80
2013,09,18,00,59,12.80
2013,09,18,01,00,12.70
2013,09,18,01,01,12.70
2013,09,18,01,02,12.70
2013,09,18,01,03,12.70
2013,09,18,01,04,12.70
2013,09,18,01,05,12.60
2013,09,18,01,06,12.60
2013,09,18,01,07,12.60
2013,09,18,01,08,12.60
2013,09,18,01,09,12.60
2013,09,18,01,10,12.60
2013,09,18,01,11,12.50
2013,09,18,01,12,12.50
2013,09,18,01,13,12.50
2013,09,18,01,14,12.40
2013,09,18,01,15,12.40
2013,09,18,01,16,12.40
2013,09,18,01,17,12.40
2013,09,18,01,18,12.30
2013,09,18,01,19,12.30
2013,09,18,01,20,12.30
2013,09,18,01,21,12.30
2013,09,18,01,22,12.30
2013,09,18,01,23,12.30
2013,09,18,01,24,12.30
2013,09,18,01,25,12.20
2013,09,18,01,26,12.20
2013,09,18,01,27,12.20
2013,09,18,01,28,12.20
2013,09,18,01,29,12.20
2013,09,18,01,30,12.30
2013,09,18,01,31,12.30
2013,09,18,01,32,12.30
2013,09,18,01,33,12.30
2013,09,18,01,34,12.30
2013,09,18,01,35,12.30
2013,09,18,01,36,12.30
2013,09,18,01,37,12.30
2013,09,18,01,38,12.30
2013,09,18,01,39,12.30
2013,09,18,01,40,12.30
2013,09,18,01,41,12.40
2013,09,18,01,42,12.40
2013,09,18,01,43,12.40
2013,09,18,01,44,12.40
2013,09,18,01,45,12.40
2013,09,18,01,46,12.40
2013,09,18,01,47,12.50
2013,09,18,01,48,12.50
2013,09,18,01,49,12.60
2013,09,18,01,50,12.60
2013,09,18,01,51,12.60
2013,09,18,01,52,12.70
2013,09,18,01,53,12.70
2013,09,18,01,54,12.70
2013,09,18,01,55,12.70
2013,09,18,01,56,12.70
2013,09,18,01,57,12.70
2013,09,18,01,58,12.70
2013,09,18,01,59,12.70
2013,09,18,02,00,12.70
2013,09,18,02,01,12.70
2013,09,18,02,02,12.60
2013,09,18,02,03,12.60
2013,09,18,02,04,12.60
2013,09,18,02,05,12.60
2013,09,18,02,06,12.60
2013,09,18,02,07,12.60
2013,09,18,02,08,12.60
2013,09,18,02,09,12.60
2013,09,18,02,10,12.60
2013,09,18,02,11,12.60
2013,09,18,02,12,12.60
2013,09,18,02,13,12.60
2013,09,18,02,14,12.60
2013,09,18,02,15,12.60
2013,09,18,02,16,12.60
2013,09,18,02,17,12.60
2013,09,18,02,18,12.60
2013,09,18,02,19,12.60
2013,09,18,02,20,12.60
2013,09,18,02,21,12.60
2013,09,18,02,22,12.60
2013,09,18,02,23,12.60
2013,09,18,02,24,12.60
2013,09,18,02,25,12.70
2013,09,18,02,26,12.70
2013,09,18,02,27,12.70
2013,09,18,02,28,12.70
2013,09,18,02,29,12.70
2013,09,18,02,30,12.70
2013,09,18,02,31,12.70
2013,09,18,02,32,12.70
2013,09,18,02,33,12.70
2013,09,18,02,34,12.70
2013,09,18,02,35,12.70
2013,09,18,02,36,12.70
2013,09,18,02,37,12.70
2013,09,18,02,38,12.70
2013,09,18,02,39,12.70
2013,09,18,02,40,12.70
2013,09,18,02,41,12.70
2013,09,18,02,42,12.70
2013,09,18,02,43,12.70
2013,09,18,02,44,12.70
2013,09,18,02,45,12.70
2013,09,18,02,46,12.70
2013,09,18,02,47,12.70
2013,09,18,02,48,12.70
2013,09,18,02,49,12.70
2013,09,18,02,50,12.70
2013,09,18,02,51,12.70
2013,09,18,02,52,12.70
2013,09,18,02,53,12.70
2013,09,18,02,54,12.70
2013,09,18,02,55,12.70
2013,09,18,02,56,12.70
2013,09,18,02,57,12.70
2013,09,18,02,58,12.70
2013,09,18,02,59,12.70
2013,09,18,03,00,12.70
2013,09,18,03,01,12.70
2013,09,18,03,02,12.70
2013,09,18,03,03,12.80
2013,09,18,03,04,12.80
2013,09,18,03,05,12.80
2013,09,18,03,06,12.80
2013,09,18,03,07,12.80
2013,09,18,03,08,12.80
2013,09,18,03,09,12.80
2013,09,18,03,10,12.80
2013,09,18,03,11,12.80
2013,09,18,03,12,12.80
2013,09,18,03,13,12.80
2013,09,18,03,14,12.80
2013,09,18,03,15,12.70
2013,09,18,03,16,12.70
2013,09,18,03,17,12.70
2013,09,18,03,18,12.70
2013,09,18,03,19,12.70
2013,09,18,03,20,12.70
2013,09,18,03,21,12.60
2013,09,18,03,22,12.60
2013,09,18,03,23,12.60
2013,09,18,03,24,12.60
2013,09,18,03,25,12.50
2013,09,18,03,26,12.50
2013,09,18,03,27,12.50
2013,09,18,03,28,12.50
2013,09,18,03,29,12.50
2013,09,18,03,30,12.50
2013,09,18,03,31,12.50
2013,09,18,03,32,12.50
2013,09,18,03,33,12.40
2013,09,18,03,34,12.40
2013,09,18,03,35,12.40
2013,09,18,03,36,12.40
2013,09,18,03,37,12.40
2013,09,18,03,38,12.40
2013,09,18,03,39,12.40
2013,09,18,03,40,12.30
2013,09,18,03,41,12.30
2013,09,18,03,42,12.30
2013,09,18,03,43,12.30
2013,09,18,03,44,12.30
2013,09,18,03,45,12.30
2013,09,18,03,46,12.20
2013,09,18,03,47,12.20
2013,09,18,03,48,12.20
2013,09,18,03,49,12.20
2013,09,18,03,50,12.10
2013,09,18,03,51,12.10
2013,09,18,03,52,12.10
2013,09,18,03,53,12.10
2013,09,18,03,54,12.10
2013,09,18,03,55,12.10
2013,09,18,03,56,12.00
2013,09,18,03,57,12.10
2013,09,18,03,58,12.10
2013,09,18,03,59,12.00
2013,09,18,04,00,12.00
2013,09,18,04,01,12.00
2013,09,18,04,02,12.00
2013,09,18,04,03,12.00
2013,09,18,04,04,11.90
2013,09,18,04,05,11.90
2013,09,18,04,06,11.90
2013,09,18,04,07,11.90
2013,09,18,04,08,11.90
2013,09,18,04,09,11.90
2013,09,18,04,10,11.80
2013,09,18,04,11,11.80
2013,09,18,04,12,11.80
2013,09,18,04,13,11.80
2013,09,18,04,14,11.80
2013,09,18,04,15,11.80
2013,09,18,04,16,11.80
2013,09,18,04,17,11.80
2013,09,18,04,18,11.80
2013,09,18,04,19,11.80
2013,09,18,04,20,11.80
2013,09,18,04,21,11.80
2013,09,18,04,22,11.80
2013,09,18,04,23,11.80
2013,09,18,04,24,11.70
2013,09,18,04,25,11.70
2013,09,18,04,26,11.70
2013,09,18,04,27,11.70
2013,09,18,04,28,11.70
2013,09,18,04,29,11.70
2013,09,18,04,30,11.70
2013,09,18,04,31,11.70
2013,09,18,04,32,11.70
2013,09,18,04,33,11.70
2013,09,18,04,34,11.70
2013,09,18,04,35,11.60
2013,09,18,04,36,11.60
2013,09,18,04,37,11.60
2013,09,18,04,38,11.60
2013,09,18,04,39,11.60
2013,09,18,04,40,11.60
2013,09,18,04,41,11.60
2013,09,18,04,42,11.60
2013,09,18,04,43,11.50
2013,09,18,04,44,11.50
2013,09,18,04,45,11.50
2013,09,18,04,46,11.40
2013,09,18,04,47,11.40
2013,09,18,04,48,11.40
2013,09,18,04,49,11.40
2013,09,18,04,50,11.40
2013,09,18,04,51,11.30
2013,09,18,04,52,11.30
2013,09,18,04,53,11.30
2013,09,18,04,54,11.30
2013,09,18,04,55,11.30
2013,09,18,04,56,11.30
2013,09,18,04,57,11.30
2013,09,18,04,58,11.20
2013,09,18,04,59,11.20
2013,09,18,05,00,11.20
2013,09,18,05,01,11.20
2013,09,18,05,02,11.20
2013,09,18,05,03,11.20
2013,09,18,05,04,11.20
2013,09,18,05,05,11.20
2013,09,18,05,06,11.20
2013,09,18,05,07,11.10
2013,09,18,05,08,11.10
2013,09,18,05,09,11.10
2013,09,18,05,10,11.10
2013,09,18,05,11,11.10
2013,09,18,05,12,11.10
2013,09,18,05,13,11.10
2013,09,18,05,14,11.10
2013,09,18,05,15,11.10
2013,09,18,05,16,11.10
2013,09,18,05,17,11.00
2013,09,18,05,18,11.00
2013,09,18,05,19,11.00
2013,09,18,05,20,11.00
2013,09,18,05,21,11.00
2013,09,18,05,22,11.00
2013,09,18,05,23,11.00
2013,09,18,05,24,11.00
2013,09,18,05,25,11.00
2013,09,18,05,26,10.90
2013,09,18,05,27,10.90
2013,09,18,05,28,10.90
2013,09,18,05,29,10.90
2013,09,18,05,30,10.90
2013,09,18,05,31,10.90
2013,09,18,05,32,10.90
2013,09,18,05,33,10.90
2013,09,18,05,34,10.90
2013,09,18,05,35,10.90
2013,09,18,05,36,10.90
2013,09,18,05,37,10.80
2013,09,18,05,38,10.80
2013,09,18,05,39,10.80
2013,09,18,05,40,10.80
2013,09,18,05,41,10.80
2013,09,18,05,42,10.80
2013,09,18,05,43,10.80
2013,09,18,05,44,10.80
2013,09,18,05,45,10.80
2013,09,18,05,46,10.80
2013,09,18,05,47,10.80
2013,09,18,05,48,10.80
2013,09,18,05,49,10.80
2013,09,18,05,50,10.80
2013,09,18,05,51,10.80
2013,09,18,05,52,10.80
2013,09,18,05,53,10.80
2013,09,18,05,54,10.80
2013,09,18,05,55,10.70
2013,09,18,05,56,10.70
2013,09,18,05,57,10.70
2013,09,18,05,58,10.70
2013,09,18,05,59,10.70
2013,09,18,06,00,10.70
2013,09,18,06,01,10.70
2013,09,18,06,02,10.60
2013,09,18,06,03,10.60
2013,09,18,06,04,10.60
2013,09,18,06,05,10.60
2013,09,18,06,06,10.60
2013,09,18,06,07,10.50
2013,09,18,06,08,10.50
2013,09,18,06,09,10.50
2013,09,18,06,10,10.50
2013,09,18,06,11,10.50
2013,09,18,06,12,10.40
2013,09,18,06,13,10.40
2013,09,18,06,14,10.40
2013,09,18,06,15,10.40
2013,09,18,06,16,10.40
2013,09,18,06,17,10.40
2013,09,18,06,18,10.30
2013,09,18,06,19,10.30
2013,09,18,06,20,10.30
2013,09,18,06,21,10.30
2013,09,18,06,22,10.30
2013,09,18,06,23,10.30
2013,09,18,06,24,10.30
2013,09,18,06,25,10.30
2013,09,18,06,26,10.30
2013,09,18,06,27,10.30
2013,09,18,06,28,10.20
2013,09,18,06,29,10.20
2013,09,18,06,30,10.20
2013,09,18,06,31,10.20
2013,09,18,06,32,10.20
2013,09,18,06,33,10.20
2013,09,18,06,34,10.10
2013,09,18,06,35,10.10
2013,09,18,06,36,10.10
2013,09,18,06,37,10.10
2013,09,18,06,38,10.00
2013,09,18,06,39,10.00
2013,09,18,06,40,10.00
2013,09,18,06,41,10.00
2013,09,18,06,42,9.90
2013,09,18,06,43,9.90
2013,09,18,06,44,9.90
2013,09,18,06,45,9.90
2013,09,18,06,46,9.90
2013,09,18,06,47,9.90
2013,09,18,06,48,9.90
2013,09,18,06,49,9.80
2013,09,18,06,50,9.80
2013,09,18,06,51,9.80
2013,09,18,06,52,9.80
2013,09,18,06,53,9.80
2013,09,18,06,54,9.80
2013,09,18,06,55,9.80
2013,09,18,06,56,9.80
2013,09,18,06,57,9.80
2013,09,18,06,58,9.70
2013,09,18,06,59,9.70
2013,09,18,07,00,9.70
2013,09,18,07,01,9.70
2013,09,18,07,02,9.70
2013,09,18,07,03,9.70
2013,09,18,07,04,9.70
2013,09,18,07,05,9.70
2013,09,18,07,06,9.70
2013,09,18,07,07,9.70
2013,09,18,07,08,9.60
2013,09,18,07,09,9.60
2013,09,18,07,10,9.60
2013,09,18,07,11,9.60
2013,09,18,07,12,9.60
2013,09,18,07,13,9.60
2013,09,18,07,14,9.60
2013,09,18,07,15,9.60
2013,09,18,07,16,9.60
2013,09,18,07,17,9.60
2013,09,18,07,18,9.60
2013,09,18,07,19,9.50
2013,09,18,07,20,9.50
2013,09,18,07,21,9.50
2013,09,18,07,22,9.50
2013,09,18,07,23,9.50
2013,09,18,07,24,9.50
2013,09,18,07,25,9.50
2013,09,18,07,26,9.50
2013,09,18,07,27,9.50
2013,09,18,07,28,9.50
2013,09,18,07,29,9.50
2013,09,18,07,30,9.50
2013,09,18,07,31,9.50
2013,09,18,07,32,9.50
2013,09,18,07,33,9.60
2013,09,18,07,34,9.60
2013,09,18,07,35,9.60
2013,09,18,07,36,9.60
2013,09,18,07,37,9.60
2013,09,18,07,38,9.60
2013,09,18,07,39,9.60
2013,09,18,07,40,9.60
2013,09,18,07,41,9.60
2013,09,18,07,42,9.60
2013,09,18,07,43,9.60
2013,09,18,07,44,9.60
2013,09,18,07,45,9.70
2013,09,18,07,46,9.70
2013,09,18,07,47,9.70
2013,09,18,07,48,9.70
2013,09,18,07,49,9.70
2013,09,18,07,50,9.70
2013,09,18,07,51,9.70
2013,09,18,07,52,9.70
2013,09,18,07,53,9.70
2013,09,18,07,54,9.70
2013,09,18,07,55,9.70
2013,09,18,07,56,9.70
2013,09,18,07,57,9.70
2013,09,18,07,58,9.80
2013,09,18,07,59,9.80
2013,09,18,08,00,9.80
2013,09,18,08,01,9.80
2013,09,18,08,02,9.80
2013,09,18,08,03,9.80
2013,09,18,08,04,9.80
2013,09,18,08,05,9.90
2013,09,18,08,06,9.90
2013,09,18,08,07,9.90
2013,09,18,08,08,9.90
2013,09,18,08,09,9.90
2013,09,18,08,10,9.90
2013,09,18,08,11,10.00
2013,09,18,08,12,10.00
2013,09,18,08,13,10.00
2013,09,18,08,14,10.00
2013,09,18,08,15,10.10
2013,09,18,08,16,10.10
2013,09,18,08,17,10.10
2013,09,18,08,18,10.10
2013,09,18,08,19,10.20
2013,09,18,08,20,10.20
2013,09,18,08,21,10.20
2013,09,18,08,22,10.20
2013,09,18,08,23,10.30
2013,09,18,08,24,10.30
2013,09,18,08,25,10.30
2013,09,18,08,26,10.40
2013,09,18,08,27,10.40
2013,09,18,08,28,10.40
2013,09,18,08,29,10.40
2013,09,18,08,30,10.50
2013,09,18,08,31,10.50
2013,09,18,08,32,10.60
2013,09,18,08,33,10.60
2013,09,18,08,34,10.60
2013,09,18,08,35,10.70
2013,09,18,08,36,10.70
2013,09,18,08,37,10.70
2013,09,18,08,38,10.80
2013,09,18,08,39,10.80
2013,09,18,08,40,10.80
2013,09,18,08,41,10.90
2013,09,18,08,42,10.90
2013,09,18,08,43,10.90
2013,09,18,08,44,11.00
2013,09,18,08,45,11.00
2013,09,18,08,46,11.10
2013,09,18,08,47,11.10
2013,09,18,08,48,11.20
2013,09,18,08,49,11.20
2013,09,18,08,50,11.30
2013,09,18,08,51,11.30
2013,09,18,08,52,11.40
2013,09,18,08,53,11.50
2013,09,18,08,54,11.50
2013,09,18,08,55,11.60
2013,09,18,08,56,11.60
2013,09,18,08,57,11.70
2013,09,18,08,58,11.80
2013,09,18,08,59,11.90
2013,09,18,09,00,11.90
2013,09,18,09,01,12.00
2013,09,18,09,02,12.10
2013,09,18,09,03,12.10
2013,09,18,09,04,12.20
2013,09,18,09,05,12.30
2013,09,18,09,06,12.40
2013,09,18,09,07,12.50
2013,09,18,09,08,12.60
2013,09,18,09,09,12.70
2013,09,18,09,10,12.80
2013,09,18,09,11,12.80
2013,09,18,09,12,13.00
2013,09,18,09,13,13.00
2013,09,18,09,14,13.20
2013,09,18,09,15,13.30
2013,09,18,09,16,13.40
2013,09,18,09,17,13.50
2013,09,18,09,18,13.60
2013,09,18,09,19,13.70
2013,09,18,09,20,13.80
2013,09,18,09,21,13.90
2013,09,18,09,22,14.00
2013,09,18,09,23,14.10
2013,09,18,09,24,14.20
2013,09,18,09,25,14.30
2013,09,18,09,26,14.40
2013,09,18,09,27,14.50
2013,09,18,09,28,14.50
2013,09,18,09,29,14.60
2013,09,18,09,30,14.60
2013,09,18,09,31,14.70
2013,09,18,09,32,14.70
2013,09,18,09,33,14.80
2013,09,18,09,34,14.80
2013,09,18,09,35,14.80
2013,09,18,09,36,14.90
2013,09,18,09,37,15.00
2013,09,18,09,38,15.00
2013,09,18,09,39,15.10
2013,09,18,09,40,15.20
2013,09,18,09,41,15.20
2013,09,18,09,42,15.20
2013,09,18,09,43,15.20
2013,09,18,09,44,15.20
2013,09,18,09,45,15.20
2013,09,18,09,46,15.20
2013,09,18,09,47,15.20
2013,09,18,09,48,15.20
2013,09,18,09,49,15.20
2013,09,18,09,50,15.20
2013,09,18,09,51,15.20
2013,09,18,09,52,15.30
2013,09,18,09,53,15.30
2013,09,18,09,54,15.30
2013,09,18,09,55,15.30
2013,09,18,09,56,15.40
2013,09,18,09,57,15.40
2013,09,18,09,58,15.30
2013,09,18,09,59,15.30
2013,09,18,10,00,15.30
2013,09,18,10,01,15.30
2013,09,18,10,02,15.30
2013,09,18,10,03,15.30
2013,09,18,10,04,15.30
2013,09,18,10,05,15.30
2013,09,18,10,06,15.30
2013,09,18,10,07,15.40
2013,09,18,10,08,15.40
2013,09,18,10,09,15.40
2013,09,18,10,10,15.40
2013,09,18,10,11,15.40
2013,09,18,10,12,15.40
2013,09,18,10,13,15.50
2013,09,18,10,14,15.50
2013,09,18,10,15,15.50
2013,09,18,10,16,15.60
2013,09,18,10,17,15.60
2013,09,18,10,18,15.60
2013,09,18,10,19,15.60
2013,09,18,10,20,15.70
2013,09,18,10,21,15.70
2013,09,18,10,22,15.70
2013,09,18,10,23,15.80
2013,09,18,10,24,15.80
2013,09,18,10,25,15.80
2013,09,18,10,26,15.90
2013,09,18,10,27,15.90
2013,09,18,10,28,16.00
2013,09,18,10,29,16.00
2013,09,18,10,30,16.00
2013,09,18,10,31,16.10
2013,09,18,10,32,16.10
2013,09,18,10,33,16.20
2013,09,18,10,34,16.20
2013,09,18,10,35,16.20
2013,09,18,10,36,16.20
2013,09,18,10,37,16.20
2013,09,18,10,38,16.20
2013,09,18,10,39,16.20
2013,09,18,10,40,16.20
2013,09,18,10,41,16.20
2013,09,18,10,42,16.30
2013,09,18,10,43,16.30
2013,09,18,10,44,16.30
2013,09,18,10,45,16.30
2013,09,18,10,46,16.30
2013,09,18,10,47,16.20
2013,09,18,10,48,16.30
2013,09,18,10,49,16.30
2013,09,18,10,50,16.30
2013,09,18,10,51,16.30
2013,09,18,10,52,16.40
2013,09,18,10,53,16.40
2013,09,18,10,54,16.50
2013,09,18,10,55,16.50
2013,09,18,10,56,16.50
2013,09,18,10,57,16.60
2013,09,18,10,58,16.60
2013,09,18,10,59,16.60
2013,09,18,11,00,16.60
2013,09,18,11,01,16.60
2013,09,18,11,02,16.60
2013,09,18,11,03,16.70
2013,09,18,11,04,16.70
2013,09,18,11,05,16.70
2013,09,18,11,06,16.70
2013,09,18,11,07,16.80
2013,09,18,11,08,16.80
2013,09,18,11,09,16.80
2013,09,18,11,10,16.80
2013,09,18,11,11,16.70
2013,09,18,11,12,16.70
2013,09,18,11,13,16.70
2013,09,18,11,14,16.70
2013,09,18,11,15,16.70
2013,09,18,11,16,16.70
2013,09,18,11,17,16.70
2013,09,18,11,18,16.70
2013,09,18,11,19,16.80
2013,09,18,11,20,16.80
2013,09,18,11,21,16.80
2013,09,18,11,22,16.80
2013,09,18,11,23,16.80
2013,09,18,11,24,16.80
2013,09,18,11,25,16.80
2013,09,18,11,26,16.90
2013,09,18,11,27,16.90
2013,09,18,11,28,16.90
2013,09,18,11,29,16.90
2013,09,18,11,30,16.90
2013,09,18,11,31,16.90
2013,09,18,11,32,16.90
2013,09,18,11,33,16.90
2013,09,18,11,34,16.90
2013,09,18,11,35,17.00
2013,09,18,11,36,17.10
2013,09,18,11,37,17.10
2013,09,18,11,38,17.10
2013,09,18,11,39,17.10
2013,09,18,11,40,17.10
2013,09,18,11,41,17.10
2013,09,18,11,42,17.00
2013,09,18,11,43,17.00
2013,09,18,11,44,17.00
2013,09,18,11,45,17.00
2013,09,18,11,46,17.00
2013,09,18,11,47,17.00
2013,09,18,11,48,17.10
2013,09,18,11,49,17.20
2013,09,18,11,50,17.20
2013,09,18,11,51,17.20
2013,09,18,11,52,17.20
2013,09,18,11,53,17.20
2013,09,18,11,54,17.20
2013,09,18,11,55,17.20
2013,09,18,11,56,17.20
2013,09,18,11,57,17.20
2013,09,18,11,58,17.20
2013,09,18,11,59,17.20
2013,09,18,12,00,17.20
2013,09,18,12,01,17.20
2013,09,18,12,02,17.20
2013,09,18,12,03,17.20
2013,09,18,12,04,17.20
2013,09,18,12,05,17.20
2013,09,18,12,06,17.20
2013,09,18,12,07,17.20
2013,09,18,12,08,17.20
2013,09,18,12,09,17.20
2013,09,18,12,10,17.20
2013,09,18,12,11,17.20
2013,09,18,12,12,17.20
2013,09,18,12,13,17.20
2013,09,18,12,14,17.20
2013,09,18,12,15,17.20
2013,09,18,12,16,17.20
2013,09,18,12,17,17.20
2013,09,18,12,18,17.20
2013,09,18,12,19,17.20
2013,09,18,12,20,17.20
2013,09,18,12,21,17.10
2013,09,18,12,22,17.10
2013,09,18,12,23,17.10
2013,09,18,12,24,17.20
2013,09,18,12,25,17.20
2013,09,18,12,26,17.20
2013,09,18,12,27,17.20
2013,09,18,12,28,17.20
2013,09,18,12,29,17.10
2013,09,18,12,30,17.10
2013,09,18,12,31,17.10
2013,09,18,12,32,17.20
2013,09,18,12,33,17.20
2013,09,18,12,34,17.20
2013,09,18,12,35,17.20
2013,09,18,12,36,17.30
2013,09,18,12,37,17.30
2013,09,18,12,38,17.30
2013,09,18,12,39,17.30
2013,09,18,12,40,17.30
2013,09,18,12,41,17.30
2013,09,18,12,42,17.30
2013,09,18,12,43,17.30
2013,09,18,12,44,17.30
2013,09,18,12,45,17.40
2013,09,18,12,46,17.40
2013,09,18,12,47,17.30
2013,09,18,12,48,17.40
2013,09,18,12,49,17.30
2013,09,18,12,50,17.30
2013,09,18,12,51,17.30
2013,09,18,12,52,17.30
2013,09,18,12,53,17.30
2013,09,18,12,54,17.30
2013,09,18,12,55,17.30
2013,09,18,12,56,17.30
2013,09,18,12,57,17.30
2013,09,18,12,58,17.30
2013,09,18,12,59,17.40
2013,09,18,13,00,17.40
2013,09,18,13,01,17.40
2013,09,18,13,02,17.40
2013,09,18,13,03,17.50
2013,09,18,13,04,17.60
2013,09,18,13,05,17.60
2013,09,18,13,06,17.60
2013,09,18,13,07,17.60
2013,09,18,13,08,17.60
2013,09,18,13,09,17.60
2013,09,18,13,10,17.50
2013,09,18,13,11,17.50
2013,09,18,13,12,17.50
2013,09,18,13,13,17.50
2013,09,18,13,14,17.40
2013,09,18,13,15,17.40
2013,09,18,13,16,17.40
2013,09,18,13,17,17.40
2013,09,18,13,18,17.40
2013,09,18,13,19,17.50
2013,09,18,13,20,17.50
2013,09,18,13,21,17.60
2013,09,18,13,22,17.60
2013,09,18,13,23,17.60
2013,09,18,13,24,17.60
2013,09,18,13,25,17.70
2013,09,18,13,26,17.70
2013,09,18,13,27,17.70
2013,09,18,13,28,17.80
2013,09,18,13,29,17.80
2013,09,18,13,30,17.80
2013,09,18,13,31,17.90
2013,09,18,13,32,17.90
2013,09,18,13,33,18.00
2013,09,18,13,34,18.00
2013,09,18,13,35,18.10
2013,09,18,13,36,18.10
2013,09,18,13,37,18.10
2013,09,18,13,38,18.20
2013,09,18,13,39,18.20
2013,09,18,13,40,18.20
2013,09,18,13,41,18.20
2013,09,18,13,42,18.30
2013,09,18,13,43,18.30
2013,09,18,13,44,18.40
2013,09,18,13,45,18.50
2013,09,18,13,46,18.50
2013,09,18,13,47,18.60
2013,09,18,13,48,18.60
2013,09,18,13,49,18.60
2013,09,18,13,50,18.60
2013,09,18,13,51,18.60
2013,09,18,13,52,18.60
2013,09,18,13,53,18.60
2013,09,18,13,54,18.70
2013,09,18,13,55,18.70
2013,09,18,13,56,18.70
2013,09,18,13,57,18.70
2013,09,18,13,58,18.60
2013,09,18,13,59,18.60
2013,09,18,14,00,18.60
2013,09,18,14,01,18.60
2013,09,18,14,02,18.60
2013,09,18,14,03,18.60
2013,09,18,14,04,18.60
2013,09,18,14,05,18.70
2013,09,18,14,06,18.70
2013,09,18,14,07,18.70
2013,09,18,14,08,18.70
2013,09,18,14,09,18.70
2013,09,18,14,10,18.70
2013,09,18,14,11,18.70
2013,09,18,14,12,18.70
2013,09,18,14,13,18.70
2013,09,18,14,14,18.60
2013,09,18,14,15,18.60
2013,09,18,14,16,18.60
2013,09,18,14,17,18.50
2013,09,18,14,18,18.50
2013,09,18,14,19,18.40
2013,09,18,14,20,18.30
2013,09,18,14,21,18.30
2013,09,18,14,22,18.20
2013,09,18,14,23,18.20
2013,09,18,14,24,18.20
2013,09,18,14,25,18.20
2013,09,18,14,26,18.10
2013,09,18,14,27,18.10
2013,09,18,14,28,18.10
2013,09,18,14,29,18.00
2013,09,18,14,30,18.00
2013,09,18,14,31,18.00
2013,09,18,14,32,18.00
2013,09,18,14,33,18.10
2013,09,18,14,34,18.10
2013,09,18,14,35,18.20
2013,09,18,14,36,18.30
2013,09,18,14,37,18.30
2013,09,18,14,38,18.40
2013,09,18,14,39,18.40
2013,09,18,14,40,18.40
2013,09,18,14,41,18.50
2013,09,18,14,42,18.50
2013,09,18,14,43,18.60
2013,09,18,14,44,18.60
2013,09,18,14,45,18.60
2013,09,18,14,46,18.70
2013,09,18,14,47,18.70
2013,09,18,14,48,18.80
2013,09,18,14,49,18.80
2013,09,18,14,50,18.80
2013,09,18,14,51,18.80
2013,09,18,14,52,18.70
2013,09,18,14,53,18.70
2013,09,18,14,54,18.70
2013,09,18,14,55,18.70
2013,09,18,14,56,18.70
2013,09,18,14,57,18.70
2013,09,18,14,58,18.60
2013,09,18,14,59,18.70
2013,09,18,15,00,18.60
2013,09,18,15,01,18.60
2013,09,18,15,02,18.60
2013,09,18,15,03,18.60
2013,09,18,15,04,18.60
2013,09,18,15,05,18.60
2013,09,18,15,06,18.50
2013,09,18,15,07,18.50
2013,09,18,15,08,18.40
2013,09,18,15,09,18.40
2013,09,18,15,10,18.30
2013,09,18,15,11,18.30
2013,09,18,15,12,18.30
2013,09,18,15,13,18.20
2013,09,18,15,14,18.20
2013,09,18,15,15,18.30
2013,09,18,15,16,18.30
2013,09,18,15,17,18.30
2013,09,18,15,18,18.30
2013,09,18,15,19,18.40
2013,09,18,15,20,18.40
2013,09,18,15,21,18.40
2013,09,18,15,22,18.40
2013,09,18,15,23,18.40
2013,09,18,15,24,18.50
2013,09,18,15,25,18.50
2013,09,18,15,26,18.50
2013,09,18,15,27,18.50
2013,09,18,15,28,18.60
2013,09,18,15,29,18.60
2013,09,18,15,30,18.60
2013,09,18,15,31,18.50
2013,09,18,15,32,18.50
2013,09,18,15,33,18.50
2013,09,18,15,34,18.60
2013,09,18,15,35,18.60
2013,09,18,15,36,18.60
2013,09,18,15,37,18.60
2013,09,18,15,38,18.60
2013,09,18,15,39,18.50
2013,09,18,15,40,18.50
2013,09,18,15,41,18.60
2013,09,18,15,42,18.60
2013,09,18,15,43,18.60
2013,09,18,15,44,18.60
2013,09,18,15,45,18.60
2013,09,18,15,46,18.50
2013,09,18,15,47,18.50
2013,09,18,15,48,18.50
2013,09,18,15,49,18.50
2013,09,18,15,50,18.50
2013,09,18,15,51,18.50
2013,09,18,15,52,18.40
2013,09,18,15,53,18.40
2013,09,18,15,54,18.40
2013,09,18,15,55,18.40
2013,09,18,15,56,18.30
2013,09,18,15,57,18.30
2013,09,18,15,58,18.20
2013,09,18,15,59,18.20
2013,09,18,16,00,18.20
2013,09,18,16,01,18.20
2013,09,18,16,02,18.20
2013,09,18,16,03,18.20
2013,09,18,16,04,18.10
2013,09,18,16,05,18.00
2013,09,18,16,06,17.90
2013,09,18,16,07,17.80
2013,09,18,16,08,17.70
2013,09,18,16,09,17.60
2013,09,18,16,10,17.50
2013,09,18,16,11,17.50
2013,09,18,16,12,17.40
2013,09,18,16,13,17.30
2013,09,18,16,14,17.30
2013,09,18,16,15,17.20
2013,09,18,16,16,17.20
2013,09,18,16,17,17.20
2013,09,18,16,18,17.10
2013,09,18,16,19,17.10
2013,09,18,16,20,17.00
2013,09,18,16,21,17.00
2013,09,18,16,22,16.90
2013,09,18,16,23,16.90
2013,09,18,16,24,16.80
2013,09,18,16,25,16.80
2013,09,18,16,26,16.80
2013,09,18,16,27,16.80
2013,09,18,16,28,16.80
2013,09,18,16,29,16.80
2013,09,18,16,30,16.80
2013,09,18,16,31,16.80
2013,09,18,16,32,16.80
2013,09,18,16,33,16.80
2013,09,18,16,34,16.80
2013,09,18,16,35,16.80
2013,09,18,16,36,16.80
2013,09,18,16,37,16.80
2013,09,18,16,38,16.70
2013,09,18,16,39,16.70
2013,09,18,16,40,16.70
2013,09,18,16,41,16.70
2013,09,18,16,42,16.70
2013,09,18,16,43,16.70
2013,09,18,16,44,16.70
2013,09,18,16,45,16.70
2013,09,18,16,46,16.70
2013,09,18,16,47,16.70
2013,09,18,16,48,16.70
2013,09,18,16,49,16.70
2013,09,18,16,50,16.70
2013,09,18,16,51,16.70
2013,09,18,16,52,16.70
2013,09,18,16,53,16.70
2013,09,18,16,54,16.70
2013,09,18,16,55,16.70
2013,09,18,16,56,16.70
2013,09,18,16,57,16.60
2013,09,18,16,58,16.60
2013,09,18,16,59,16.60
2013,09,18,17,00,16.60
2013,09,18,17,01,16.60
2013,09,18,17,02,16.60
2013,09,18,17,03,16.60
2013,09,18,17,04,16.60
2013,09,18,17,05,16.70
2013,09,18,17,06,16.60
2013,09,18,17,07,16.60
2013,09,18,17,08,16.60
2013,09,18,17,09,16.60
2013,09,18,17,10,16.60
2013,09,18,17,11,16.60
2013,09,18,17,12,16.60
2013,09,18,17,13,16.60
2013,09,18,17,14,16.60
2013,09,18,17,15,16.60
2013,09,18,17,16,16.60
2013,09,18,17,17,16.60
2013,09,18,17,18,16.60
2013,09,18,17,19,16.60
2013,09,18,17,20,16.70
2013,09,18,17,21,16.70
2013,09,18,17,22,16.70
2013,09,18,17,23,16.70